Regional Weather Roundup
Issued by NWS

Home | Current Version | Previous Version | Text Only | Print | Product List | Glossary On
Versions: 1 2 3 4 5 6 7 8 9 10 11 12 13 14 15 16 17 18 19 20 21 22 23 24 25 26 27 28 29 30 31 32 33 34 35 36 37 38 39 40 41 42 43 44 45 46 47 48 49 50
000
ASUS43 KBIS 260002
RWRND

NORTH DAKOTA REGIONAL WEATHER ROUNDUP
NATIONAL WEATHER SERVICE BISMARCK ND
600 PM CST SUN FEB 25 2018

NOTE: "FAIR" INDICATES FEW OR NO CLOUDS BELOW 12,000 FEET WITH NO
SIGNIFICANT WEATHER AND/OR OBSTRUCTIONS TO VISIBILITY.


NDZ001>003-009>011-017-260100-
NORTHWEST NORTH DAKOTA

CITY           SKY/WX    TMP DP  RH WIND       PRES   REMARKS
WILLISTON      PTCLDY    29  17  61 SW12      29.61S WCI  19
6HR MIN TEMP:  20; 6HR MAX TEMP:  30;

MINOT          CLOUDY    28  17  63 SW10      29.61F WCI  19
MINOT AFB      CLOUDY    25  14  63 SW12        N/A  WCI  14
$$

NDZ018>021-031>035-040>046-260100-
SOUTHWEST NORTH DAKOTA

CITY           SKY/WX    TMP DP  RH WIND       PRES   REMARKS
BISMARCK       CLEAR     31  20  63 SW12      29.71F
6HR MIN TEMP:  28; 6HR MAX TEMP:  33;

DICKINSON      PTCLDY    26  17  68 SW14      29.64S WCI  14
GARRISON         N/A     26  17  68 SW14      29.64S WCI  14
6HR MIN TEMP:  24; 6HR MAX TEMP:  29;

HETTINGER ARPT PTCLDY    25  16  68 SW13      29.73R WCI  14
$$

NDZ004>008-012>016-024-026-027-054-260100-
NORTHEAST NORTH DAKOTA

CITY           SKY/WX    TMP DP  RH WIND       PRES   REMARKS
GRAND FORKS    FAIR      23  18  81 W9        29.71R WCI  13
GRND FRKS AFB  FAIR      23  16  75 W7        29.71R WCI  14
DEVILS LAKE    FAIR      21  16  81 SW9       29.68R WCI  11
$$

NDZ022-023-025-028>030-036>039-047>053-260100-
SOUTHEAST NORTH DAKOTA

CITY           SKY/WX    TMP DP  RH WIND       PRES   REMARKS
FARGO          FAIR      26  19  74 SW14      29.77R WCI  14
6HR MIN TEMP:  26; 6HR MAX TEMP:  29;

JAMESTOWN      CLEAR     26  18  71 SW12      29.72R WCI  16
$$





USA.gov is the U.S. government's official web portal to all federal, state and local government web resources and services.